Location: Unspecified
(40.9833°N, 0.0000°E)
Time: 21:14:42
(UTC+00:00)

FO-29 - Visible Passes

Search period start: 22 July 2019 00:00
Search period end: 01 August 2019 00:00
Orbit: 800 x 1322 km, 98.5° (Epoch: 21 July)

Date Brightness Start Highest point End Pass type
(mag) Time Alt. Az. Time Alt. Az. Time Alt. Az.
22 Jul 12.0 01:18:03 10° ESE 01:22:49 20° ENE 01:27:17 10° NNE visible
22 Jul 9.8 02:59:51 10° SSE 03:07:16 81° WSW 03:13:54 10° NNW visible
23 Jul 10.8 02:05:40 10° SE 02:12:24 43° ENE 02:18:28 10° N visible
23 Jul 10.4 03:50:51 10° SSW 03:57:26 35° W 04:03:26 10° NNW visible
24 Jul 12.0 01:13:31 10° E 01:17:53 18° ENE 01:21:59 10° NNE visible
24 Jul 9.8 02:55:00 10° SSE 03:02:19 86° WSW 03:08:49 10° NNW visible
25 Jul 10.9 02:00:56 10° SE 02:07:27 40° ENE 02:13:19 10° N visible
25 Jul 10.3 03:45:52 10° SSW 03:52:27 37° W 03:58:25 10° NNW visible
26 Jul 12.1 01:09:01 10° E 01:12:56 16° ENE 01:16:38 10° NNE visible
26 Jul 9.7 02:50:08 10° SSE 02:57:20 89° ENE 03:03:43 10° NNW visible
27 Jul 11.0 01:56:13 10° SE 02:02:29 37° ENE 02:08:08 10° N visible
27 Jul 10.2 03:40:53 10° SSW 03:47:27 39° W 03:53:23 10° NNW visible
28 Jul 12.2 01:04:34 10° E 01:08:00 15° ENE 01:11:15 10° NNE visible
28 Jul 9.7 02:45:17 10° SSE 02:52:21 84° ENE 02:58:36 10° NNW visible
29 Jul 11.1 01:51:29 10° SE 01:57:31 34° ENE 02:02:57 10° N visible
29 Jul 10.1 03:35:54 10° SSW 03:42:27 42° W 03:48:20 10° NNW visible
30 Jul 12.2 01:00:12 10° E 01:03:03 13° ENE 01:05:46 10° NNE visible
30 Jul 9.7 02:40:26 10° SSE 02:47:22 79° ENE 02:53:29 10° N visible
31 Jul 11.2 01:46:47 10° SE 01:52:32 31° ENE 01:57:44 10° N visible
31 Jul 10.0 03:30:56 10° S 03:37:27 44° W 03:43:16 10° NNW visible
